Location: Unspecified
(44.4377°N, 88.0525°W)
Time: 05:36:39
(UTC-06:00)

ISS - Visible Passes

Search period start: 17 December 2018 00:00
Search period end: 27 December 2018 00:00
Orbit: 401 x 408 km, 51.6° (Epoch: 18 December)

Date Brightness Start Highest point End Pass type
(mag) Time Alt. Az. Time Alt. Az. Time Alt. Az.
22 Dec -0.5 06:14:02 10° SSE 06:15:45 14° SE 06:17:29 10° E visible
24 Dec -1.8 06:04:32 10° SSW 06:07:27 29° SE 06:10:21 10° ENE visible
25 Dec -0.9 05:13:10 10° S 05:15:22 17° SE 05:17:33 10° E visible
25 Dec -3.9 06:48:13 10° WSW 06:51:30 72° NNW 06:54:48 10° ENE visible
26 Dec -3.5 05:56:40 15° SW 05:59:14 66° SE 06:02:30 10° ENE visible
